Location: Songkhla
(7.2000°N, 100.6000°E)
Time: 20:46:04
(UTC+07:00)

Daily predictions for brighter satellites

Satellite Brightness Start Highest point End
(mag) Time Altitude Azimuth Time Altitude Azimuth Time Altitude Azimuth
ATLAS 2AS CENTAUR R/B 3.4 18:30:44 10° N 18:37:03 31° ENE 18:42:50 10° ESE
CZ-4C R/B 3.2 18:37:09 10° SSE 18:40:51 22° ESE 18:44:35 10° ENE
Nadezhda 3 Rocket 4.4 18:35:11 10° SSE 18:41:04 44° E 18:46:58 10° NNE
CZ-4 R/B 4.4 18:38:32 10° SSE 18:42:38 88° E 18:46:45 10° N
H-2A R/B 4.3 18:40:52 10° ESE 18:43:03 15° ENE 18:45:15 10° NE
ARIANE 5 DEB (SYLDA) 3.2 18:41:47 10° SW 18:43:16 15° SSW 18:44:21 10° SSE
Cosmos 2366 rocket 4.3 18:38:27 10° NNE 18:44:18 45° E 18:50:07 10° SSE
ALOS 2.4 18:39:49 10° SSE 18:44:20 52° ENE 18:48:51 10° N
ATLAS 2AS CENTAUR RB 3.3 18:42:14 10° WSW 18:45:22 16° SSW 18:47:06 10° SSE
Hubble Space Telescope 1.1 18:46:02 10° WSW 18:50:06 60° NNW 18:54:11 10° NE
GPS 2-14 Rocket1 4.3 18:47:04 10° W 18:50:30 31° SSW 18:53:54 10° SE
Cosmos 2208 Rocket 4.5 18:45:58 10° S 18:50:47 40° ESE 18:55:39 10° NNE
Cosmos 1408 Rocket 4.4 18:46:42 10° SSW 18:50:56 53° W 18:55:07 10° N
Delta 198 3.7 18:47:46 10° SW 18:51:20 47° SSE 18:55:09 11° E
deb Olympus 3.4 18:49:36 10° W 18:52:23 59° S 18:58:41 10° E
Cosmos 2263 4.4 18:48:06 10° N 18:53:33 47° ENE 18:58:58 10° SSE
FALCON 9 R/B 3.5 18:52:18 10° SW 18:57:47 90° NW 19:17:46 12° NE
Cosmos 2221 3.9 18:54:14 10° NNW 18:58:23 44° W 19:02:34 10° SSW
Atlas 2A Centaur Rocket 3.8 18:54:52 10° W 18:59:05 22° SW 19:01:09 10° SSE
Cosmos 2369 Rocket 2.3 18:56:54 10° NNW 19:02:35 88° WSW 19:08:18 10° SSE
Cosmos 1500 Rocket 3.6 18:58:31 10° S 19:02:52 58° E 19:07:14 10° NNE
Cosmos 2058 2.8 19:00:25 10° S 19:04:32 87° E 19:08:41 10° N
NOAA 12 4.0 18:59:58 10° SSE 19:05:11 76° ENE 19:10:23 10° N
Cosmos 2151 3.0 19:05:36 10° S 19:09:49 86° W 19:14:03 10° N
SL-27 R/B 3.1 19:09:57 10° SSE 19:12:56 31° E 19:14:13 23° ENE
Cosmos 1743 Rocket 4.1 19:12:14 10° SSW 19:16:36 61° W 19:20:55 10° N
Cosmos 468 Rocket 4.2 19:12:36 10° S 19:17:34 48° ESE 19:21:37 15° NNE
Cosmos 2228 Rocket 3.9 19:14:24 10° NNE 19:18:24 30° E 19:22:23 10° SSE
Cosmos 1455 3.3 19:18:54 23° E 19:18:54 23° E 19:21:47 10° SE
Cosmos 1943 Rocket 2.0 19:13:59 10° NNW 19:19:31 82° ENE 19:25:01 10° SSE
FENGYUN 3A 4.2 19:15:47 10° S 19:21:03 61° WSW 19:26:19 10° NNW
Cosmos 2082 Rocket 3.2 19:17:04 10° SSE 19:21:37 25° ESE 19:23:05 22° E
Cosmos 2098 Rocket 4.2 19:15:57 10° N 19:22:08 59° E 19:29:21 10° SSE
SJ-6B 3.9 19:19:11 10° SE 19:22:03 25° E 19:22:03 25° E
FREGAT/IRIS 2.6 19:21:15 10° SSE 19:24:09 49° ENE 19:25:38 24° NNE
Cosmos 371 Rocket 4.3 19:19:54 10° SSW 19:24:29 45° WNW 19:29:03 10° N
Ariane H10-3 4.1 19:23:08 10° WSW 19:26:35 49° S 19:42:09 10° ESE
Delta 2 Rocket 4.1 19:20:51 10° WSW 19:26:47 61° NNW 19:30:30 24° NE
Ariane H10+ 1.8 19:23:26 10° W 19:27:36 42° SSW 19:28:45 24° SE
Cosmos 968 Rocket 3.7 19:22:56 10° NNW 19:28:00 73° WSW 19:33:04 10° S
Cosmos 2084 4.4 19:25:53 10° NW 19:29:42 47° WSW 19:33:45 10° S
FengYun 1-2 T 4.2 19:24:25 10° SSE 19:30:01 64° ENE 19:35:35 10° N
Meteor 1-27 4.3 19:24:52 10° N 19:30:32 59° E 19:36:16 10° SSE
ARGOS Delta rocket 4.5 19:30:27 23° NE 19:33:22 43° E 19:38:18 10° S
GPS 2-17 Rocket1 3.2 19:31:32 10° WSW 19:36:22 68° NNW 19:38:06 38° NE
Cosmos 1763 Rocket 3.8 19:33:31 10° S 19:38:25 42° ESE 19:39:34 37° ENE
Mugunghwa Rocket 4.0 19:33:00 10° WSW 19:39:17 70° NNW 19:42:24 32° NE
GPS 2-15 Rocket1 3.4 19:36:09 10° W 19:40:54 57° NNW 19:42:20 40° NE
Atlas Centaur 2 3.2 19:35:13 10° SW 19:42:10 40° SSE 19:44:36 29° ESE
Cosmos 1328 Rocket 3.5 19:38:15 10° N 19:42:34 83° W 19:46:53 10° S
Ariane 44LP R/B 3.3 19:44:31 10° SW 19:46:33 27° SSE 19:46:37 27° SSE
ERS-2 4.0 19:45:06 10° SSW 19:48:23 31° WSW 19:51:39 10° NW
Cosmos 1833 Rocket 2.6 19:48:41 10° S 19:54:11 61° ESE 19:55:14 51° ENE
CCE 1 Rocket 3.5 19:50:28 10° WNW 19:54:23 84° NNE 19:55:18 58° ESE
ISS -2.1 19:51:58 10° WSW 19:54:48 28° NW 19:54:58 27° NW
Cosmos 1805 Rocket 3.4 19:53:00 10° S 19:57:25 84° E 19:57:43 76° NNE
Lacrosse 5 3.7 20:02:40 10° WSW 20:06:52 26° WNW 20:09:26 18° NNW
Cosmos 1151 Rocket 4.5 20:24:12 32° WNW 20:25:08 36° W 20:29:08 10° SSW
CZ-4C R/B 4.1 20:25:30 10° WSW 20:28:59 19° WNW 20:30:44 16° NW
ATLAS CENTAUR R/B 3.6 20:25:26 10° SSW 20:26:46 20° SW 20:26:46 20° SW
Hubble Space Telescope 3.7 20:29:34 10° NW 20:29:37 10° NW 20:29:37 10° NW
Cosmos 2082 Rocket 4.2 21:00:59 10° SW 21:05:01 23° W 21:05:01 23° W
